Location: Dumpton Point
(51.3500°N, 1.4433°E)
Time: 20:54:27
(UTC+00:00)

Vanguard 2 Rocket - Pass Details

Date: 30 September 2022
Orbit: 555 x 3321 km, 32.9° (Epoch: 05 December)

Event Time Altitude Azimuth Distance (km) Brightness Sun altitude
Rises 23:32:26 0° 227° (SW) 6,083 - -41.7°
Reaches altitude 10° 23:38:25 10° 214° (SSW) 4,508 - -41.7°
Maximum altitude 23:45:41 19° 175° (S) 3,050 - -41.7°
Drops below altitude 10° 23:50:58 10° 133° (SE) 3,115 - -41.7°
Sets 23:54:05 0° 115° (ESE) 3,715 - -41.7°
